User: anonymous   Login
Location: ??????
(55.6500°N, 37.8000°E)
Time: 15:32:11
(UTC+00:00)
Language:

BREEZE-M DEB (TANK) - Orbit

View from above orbital plane
View from above orbital plane
View from above satellite
View from above satellite

Ground track
Ground track

The orbit data is extracted from the following two-line orbital elements,

1 28116U 03056E   24165.68681288  .00006620  00000-0  11496-2 0  9994
2 28116  52.8328 158.0677 5728684 107.0660 320.6192  4.45694994325379
Epoch (UTC): 13 June 2024 16:29:00
Eccentricity: 0.5728684
inclination: 52.8328°
perigee height: 284 km
apogee height: 18154 km
right ascension of ascending node: 158.0677°
argument of perigee: 107.0660°
revolutions per day: 4.45694994
mean anomaly at epoch: 320.6192°
orbit number at epoch: 32537

The dashed part of the orbit path shows where the satellite is in the earth's shadow,  

DLR